Location: 22
(39.7117°N, 89.5929°W)
Time: 05:56:39
(UTC-05:00)

ISS - Visible Passes

Search period start: 23 April 2019 00:00
Search period end: 03 May 2019 00:00
Orbit: 408 x 410 km, 51.6° (Epoch: 23 April)

Date Brightness Start Highest point End Pass type
(mag) Time Alt. Az. Time Alt. Az. Time Alt. Az.
25 Apr -0.8 05:32:02 10° SE 05:32:59 11° SE 05:33:57 10° ESE visible
27 Apr -2.1 05:24:42 10° SSW 05:27:36 28° SE 05:30:30 10° ENE visible
28 Apr -1.3 04:35:03 11° SSE 04:36:56 15° SE 04:38:58 10° E visible
29 Apr -3.8 05:19:08 11° SW 05:22:19 81° SE 05:25:38 10° NE visible
30 Apr -2.9 04:30:22 29° S 04:31:31 40° SE 04:34:39 10° ENE visible
01 May -1.6 03:41:31 20° ESE 03:41:31 20° ESE 03:43:22 10° E visible
01 May -3.0 05:14:16 11° WSW 05:17:10 40° NNW 05:20:20 10° NE visible
02 May -3.8 04:25:20 44° WSW 04:26:14 73° NW 04:29:32 10° NE visible
